Flag for Canada Weather past 2 weeks in Saskatoon, Saskatchewan, Canada

Now
32 °F

Light snow. Low clouds.


Feels Like: 19 °F
Forecast: 33 / 40 °F
Wind: 24 mph from Southeast

Location: Saskatoon Weather Station


UV Index: 0 (Low)

Visibility: 2 mi


Pressure: 29.83 "Hg

Humidity: 93%

Dew point: 30 °F

Location of SaskatoonLocation

Historic Weather in Saskatoon

°F

Saskatoon temperature yesterday

Maximum temperature yesterday: 37 °F (at 2:00 PM)
Minimum temperature yesterday: 21 °F (at 12:00 AM)
Average temperature yesterday: 30 °F

Past Weeks' High & Low Weather Summary

 TemperatureHumidityPressure
High64 °F (Apr 8, 4:00 PM)100% (Apr 11, 5:00 AM)30.50 "Hg (Apr 11, 5:00 AM)
Low10 °F (Apr 14, 6:00 AM)26% (Apr 9, 2:00 PM)29.45 "Hg (Apr 9, 4:00 AM)
Average33 °F70%30.00 "Hg
* Reported Apr 3 12:00 Noon — Apr 18 12:00 Noon, Saskatoon, Weather by CustomWeather, © 2014

Note: Actual official high and low records may vary slightly from our data, if they occured in-between our weather recording intervals... More about our weather records

Advertising

Historic Weather Conditions — Data for Previous 24 hours

 ConditionsComfort  
Time TempWeatherWind HumidityBarometerVisibility
12:00 PM
Apr 18
32 °FLight snow. Low clouds.24 mph93%29.83 "Hg15 mi
11:00 AM32 °FLight snow. Mostly cloudy.25 mph93%29.85 "Hg6 mi
10:02 AM32 °FLight snow. Mostly cloudy.28 mph93%29.86 "Hg6 mi
9:53 AM32 °FLight rain. More clouds than sun.31 mph93%29.85 "Hg15 mi
9:00 AM32 °FLight mixture of precip. Overcast.26 mph87%29.87 "Hg15 mi
8:00 AM32 °FLight mixture of precip. More clouds than sun.25 mph87%29.88 "Hg15 mi
7:00 AM30 °FLight mixture of precip. Overcast.24 mph86%29.90 "Hg12 mi
6:00 AM30 °FLight freezing rain. Overcast.26 mph86%29.91 "Hg10 mi
5:00 AM32 °FLight mixture of precip. Overcast.22 mph80%29.93 "Hg12 mi
4:00 AM32 °FLight snow. Mostly cloudy.22 mph80%29.94 "Hg10 mi
3:00 AM32 °FLight snow. Mostly cloudy.21 mph80%29.96 "Hg10 mi
2:00 AM34 °FLight snow. Mostly cloudy.23 mph70%29.99 "Hg15 mi
1:00 AM34 °FPassing clouds.26 mph70%30.00 "Hg15 mi
12:00 AM34 °FPassing clouds.26 mph70%30.02 "Hg15 mi
11:00 PM
Apr 17
34 °FOvercast.22 mph70%30.03 "Hg15 mi
10:00 PM36 °FLight snow. Overcast.22 mph70%30.04 "Hg15 mi
9:00 PM36 °FLight snow. Overcast.25 mph70%30.05 "Hg15 mi
8:00 PM37 °FMostly cloudy.21 mph60%30.06 "Hg15 mi
7:00 PM37 °FOvercast.16 mph60%30.07 "Hg15 mi
6:00 PM37 °FOvercast.20 mph60%30.09 "Hg15 mi
5:00 PM36 °FLight snow. Overcast.20 mph70%30.11 "Hg15 mi
4:00 PM36 °FLight snow. More clouds than sun.25 mph65%30.11 "Hg12 mi
3:00 PM36 °FLight snow. Overcast.24 mph65%30.13 "Hg15 mi
2:00 PM37 °FOvercast.24 mph56%30.14 "Hg15 mi
1:00 PM34 °FLight snow. More clouds than sun.21 mph65%30.16 "Hg15 mi
Weather by CustomWeather, © 2014

See weather overview